Location: Sternwarte_Laufen
(47.9344°N, 12.9346°E)
Time: 00:42:51
(UTC+02:00)

ISS - Pass Details

Date: 21 May 2017
Orbit: 402 x 408 km, 51.6° (Epoch: 27 May)

Event Time Altitude Azimuth Distance (km) Brightness Sun altitude
Exits shadow 01:24:47 57° 16° (NNE) 483 -3.3 -21.7°
Drops below altitude 10° 01:27:43 10° 65° (ENE) 1,468 -0.6 -21.7°
Sets 01:29:50 0° 69° (ENE) 2,328 0.4 -21.7°
